CZ-6A DEB, 60712

Orbit data source: Space-Track

CZ-6A DEB, 60712 is space debris in LEO originally from a launch on Tue, 06 Aug 2024 UTC launched from the Taiyaun Space Center, China (TSC). Debris objects in space refer to the collection of defunct objects orbiting the Earth. Examples of debris include non-operational satellites, rocket bodies, and fragments generated from explosions, collisions, or faulty payload assembly.

Loading next visibility...
Identifier
60712, 2024-140DR
Orbit
LEO
Country
Flag of CNCN / PRC
Related business
Manufacturer
SAST
Mission
Spacecraft
Bus & Motor
Unknown
Mass
Unknown
Launch date (UTC)
2024-08-06 (1 year ago)
Launch vehicle
Unknown
Launch site
Taiyaun Space Center, China (TSC)
Object type
Payload
Rocket body
Debris
Shape & HBR
Unknown shape, 0.3 m
Radar Cross Section
Medium (>0.1 m² and <1 m²)

Expand to show TLE details & history
Last TLE update: 10 hours ago

TLE from 10 hours ago
0 CZ-6A DEB
1 60712U 24140DR  25343.14667205  .00002682  00000-0  39388-3 0  9997
2 60712  88.8807 284.5030 0153998 152.1013 208.8571 14.67344897 70884
Epoch: 2025-12-09T03:31Z
TLE epoch observation values (Epoch: 2025-12-09T03:31:12.465Z)
Latitude
0.00002°
Longitude
153.56553°
Altitude
768.138 km
Speed
7.419 km/s
True Right ascension
18h 58m 00s
True Declination
0° 00' 00"
Sunlit
Object was in daylight at epoch
Visualization orbit readout
Latitude
Unknown
Longitude
Unknown
Altitude
Unknown
Speed
Unknown
Apparent Right ascension
Unknown
Apparent Declination
Unknown
Sunlit
N/A
Visualization observer readout
Local Sidereal Time
12:04:48
Azimuth
Unknown
Elevation
Unknown
Doppler factor
Unknown
Orbital elements
Apogee altitude
774.925 km
Perigee altitude
557.955 km
Semi-major axis
7,044.577 km
Eccentricity
0.0154
Inclination
88.8807°
RAAN
284.503°
Arg. of periapsis
152.1013°
True anomaly
208.01957°
Mean anomaly
208.8571°
Eccentric anomaly
208.43694°
Mean motion
3.6708 °/min
Orbital period
98.07 mins
BSTAR
0.00039388
Loading maneuver chart data...
Computing Atmospheric mass density...
Loading historical data...
Loading historical data...
Loading historical data...
Loading historical data...
Loading historical data...
Loading historical data...
Loading historical data...

Documentation

Showing up to 5 results
|